Time,TemperatureF,DewpointF,PressureIn,WindDirection,WindDirectionDegrees,WindSpeedMPH,WindSpeedGustMPH,Humidity,HourlyPrecipIn,Conditions,Clouds,dailyrainin,SoftwareType,DateUTC
2013-04-02 00:00:00,69.3,67.5,30.02,WNW,294,0.0,0.0,94,0.00,,SCT080,0.00,VWS V12.08,2013-04-02 04:00:00,
2013-04-02 00:05:00,69.3,67.8,30.02,WNW,294,0.0,0.0,95,0.00,,SCT080,0.00,VWS V12.08,2013-04-02 04:05:00,
2013-04-02 00:10:00,69.3,67.8,30.02,WNW,295,0.0,0.0,95,0.00,,SCT080,0.00,VWS V12.08,2013-04-02 04:10:00,
2013-04-02 00:15:00,69.1,67.6,30.02,WNW,295,0.0,0.0,95,0.00,,SCT080,0.00,VWS V12.08,2013-04-02 04:15:00,
2013-04-02 00:25:00,69.0,67.5,30.02,WNW,295,0.0,0.0,95,0.00,,SCT080,0.00,VWS V12.08,2013-04-02 04:25:00,
2013-04-02 00:30:00,68.9,67.4,30.02,WNW,295,0.0,0.0,95,0.00,,SCT080,0.00,VWS V12.08,2013-04-02 04:30:00,
2013-04-02 00:35:00,68.6,67.1,30.02,WNW,295,0.0,0.0,95,0.00,,SCT080,0.00,VWS V12.08,2013-04-02 04:35:00,
2013-04-02 00:40:00,68.7,67.2,30.02,WNW,295,0.0,0.0,95,0.00,,SCT080,0.00,VWS V12.08,2013-04-02 04:40:00,
2013-04-02 00:45:00,68.7,67.2,30.02,WNW,295,0.0,0.0,95,0.00,,SCT080,0.00,VWS V12.08,2013-04-02 04:45:00,
2013-04-02 00:50:00,68.5,67.0,30.02,WNW,295,0.0,0.0,95,0.00,,SCT080,0.00,VWS V12.08,2013-04-02 04:50:00,
2013-04-02 00:55:00,68.5,67.0,30.02,WNW,295,0.0,0.0,95,0.00,,SCT080,0.00,VWS V12.08,2013-04-02 04:55:00,
2013-04-02 01:00:00,68.5,67.0,30.02,WNW,295,0.0,0.0,95,0.00,,SCT080,0.00,VWS V12.08,2013-04-02 05:00:00,
2013-04-02 01:15:00,68.0,66.5,30.01,WNW,295,0.0,0.0,95,0.00,,SCT080,0.00,VWS V12.08,2013-04-02 05:15:00,
2013-04-02 01:20:00,67.9,66.7,30.01,WNW,295,0.0,0.0,96,0.00,,SCT080,0.00,VWS V12.08,2013-04-02 05:20:00,
2013-04-02 01:25:00,67.9,66.7,30.01,WNW,295,0.0,0.0,96,0.00,,SCT080,0.00,VWS V12.08,2013-04-02 05:25:00,
2013-04-02 01:30:00,67.6,66.4,30.01,WNW,295,0.0,0.0,96,0.00,,SCT080,0.00,VWS V12.08,2013-04-02 05:30:00,
2013-04-02 01:35:00,67.5,66.3,30.01,WNW,295,0.0,0.0,96,0.00,,SCT080,0.00,VWS V12.08,2013-04-02 05:35:00,
2013-04-02 01:40:00,67.7,66.5,30.01,WNW,295,0.0,0.0,96,0.00,,SCT080,0.00,VWS V12.08,2013-04-02 05:40:00,
2013-04-02 01:45:00,67.5,66.3,30.01,WNW,295,0.0,0.0,96,0.00,,SCT080,0.00,VWS V12.08,2013-04-02 05:45:00,
2013-04-02 01:50:00,67.2,66.0,30.01,WNW,295,0.0,0.0,96,0.00,,SCT080,0.00,VWS V12.08,2013-04-02 05:50:00,
2013-04-02 01:55:00,67.0,65.8,30.00,WNW,295,0.0,0.0,96,0.00,,SCT080,0.00,VWS V12.08,2013-04-02 05:55:00,
2013-04-02 02:00:00,67.5,66.3,30.00,WNW,295,0.0,0.0,96,0.00,,SCT080,0.00,VWS V12.08,2013-04-02 06:00:00,
2013-04-02 02:10:00,67.1,65.9,30.00,WNW,295,0.0,0.0,96,0.00,,SCT080,0.00,VWS V12.08,2013-04-02 06:10:00,
2013-04-02 02:15:00,66.8,65.6,30.00,WNW,295,0.0,0.0,96,0.00,,SCT080,0.00,VWS V12.08,2013-04-02 06:15:00,
2013-04-02 02:20:00,66.8,65.6,30.00,WNW,295,0.0,0.0,96,0.00,,SCT080,0.00,VWS V12.08,2013-04-02 06:20:00,
2013-04-02 02:25:00,66.7,65.5,30.00,WNW,295,0.0,0.0,96,0.00,,SCT080,0.00,VWS V12.08,2013-04-02 06:25:00,
2013-04-02 02:30:00,66.7,65.5,30.00,WNW,295,0.0,0.0,96,0.00,,SCT080,0.00,VWS V12.08,2013-04-02 06:30:00,
2013-04-02 02:35:00,66.5,65.3,30.00,WNW,295,0.0,0.0,96,0.00,,SCT080,0.00,VWS V12.08,2013-04-02 06:35:00,
2013-04-02 02:40:00,66.8,65.6,30.00,WNW,295,0.0,0.0,96,0.00,,SCT080,0.00,VWS V12.08,2013-04-02 06:40:00,
2013-04-02 02:45:00,66.5,65.3,30.00,WNW,295,0.0,0.0,96,0.00,,SCT080,0.00,VWS V12.08,2013-04-02 06:45:00,
2013-04-02 02:50:00,66.4,65.2,30.00,WNW,295,0.0,0.0,96,0.00,,SCT080,0.00,VWS V12.08,2013-04-02 06:50:00,
2013-04-02 02:55:00,66.7,65.8,30.00,WNW,295,0.0,0.0,97,0.00,,SCT080,0.00,VWS V12.08,2013-04-02 06:55:00,
2013-04-02 03:00:00,66.5,65.6,30.00,WNW,295,0.0,0.0,97,0.00,,SCT080,0.00,VWS V12.08,2013-04-02 07:00:00,
2013-04-02 03:05:00,66.2,65.0,30.00,WNW,295,0.0,0.0,96,0.00,,SCT080,0.00,VWS V12.08,2013-04-02 07:05:00,
2013-04-02 03:10:00,66.3,65.1,30.00,WNW,295,0.0,0.0,96,0.00,,SCT080,0.00,VWS V12.08,2013-04-02 07:10:00,
2013-04-02 03:15:00,66.5,65.6,30.00,WNW,295,0.0,0.0,97,0.00,,SCT080,0.00,VWS V12.08,2013-04-02 07:15:00,
2013-04-02 03:20:00,66.2,65.3,30.00,WNW,295,0.0,0.0,97,0.00,,SCT080,0.00,VWS V12.08,2013-04-02 07:20:00,
2013-04-02 03:25:00,66.2,65.3,30.00,WNW,295,0.0,0.0,97,0.00,,SCT080,0.00,VWS V12.08,2013-04-02 07:25:00,
2013-04-02 03:30:00,66.8,65.9,30.00,WNW,295,0.0,0.0,97,0.00,,SCT080,0.00,VWS V12.08,2013-04-02 07:30:00,
2013-04-02 03:35:00,67.5,66.6,30.00,WNW,295,0.0,0.0,97,0.00,,SCT080,0.00,VWS V12.08,2013-04-02 07:35:00,
2013-04-02 03:40:00,67.7,66.8,30.00,WNW,295,0.0,0.0,97,0.00,,SCT080,0.00,VWS V12.08,2013-04-02 07:40:00,
2013-04-02 03:45:00,68.0,67.1,30.00,WNW,295,0.0,0.0,97,0.00,,SCT080,0.00,VWS V12.08,2013-04-02 07:45:00,
2013-04-02 03:50:00,68.3,67.4,30.00,NW,320,0.0,0.0,97,0.00,,SCT080,0.00,VWS V12.08,2013-04-02 07:50:00,
2013-04-02 03:55:00,68.6,67.7,30.00,NW,320,0.0,0.0,97,0.00,,SCT080,0.00,VWS V12.08,2013-04-02 07:55:00,
2013-04-02 04:00:00,68.6,67.7,30.00,NW,320,0.0,0.0,97,0.00,,SCT080,0.00,VWS V12.08,2013-04-02 08:00:00,
2013-04-02 04:05:00,68.6,67.7,30.00,NW,319,0.0,0.0,97,0.00,,SCT080,0.00,VWS V12.08,2013-04-02 08:05:00,
2013-04-02 04:10:00,68.6,67.7,30.00,NW,319,0.0,0.0,97,0.00,,SCT080,0.00,VWS V12.08,2013-04-02 08:10:00,
2013-04-02 04:15:00,68.6,67.7,30.00,NW,320,0.0,0.0,97,0.00,,SCT080,0.00,VWS V12.08,2013-04-02 08:15:00,
2013-04-02 04:20:00,68.4,67.5,30.00,NW,320,0.0,0.0,97,0.00,,SCT080,0.00,VWS V12.08,2013-04-02 08:20:00,
2013-04-02 04:25:00,68.3,67.4,30.00,NW,320,0.0,0.0,97,0.00,,SCT080,0.00,VWS V12.08,2013-04-02 08:25:00,
2013-04-02 04:30:00,68.3,67.4,29.99,NW,320,0.0,0.0,97,0.00,,SCT080,0.00,VWS V12.08,2013-04-02 08:30:00,
2013-04-02 04:35:00,68.4,67.5,29.99,NW,320,0.0,0.0,97,0.00,,SCT080,0.00,VWS V12.08,2013-04-02 08:35:00,
2013-04-02 04:40:00,68.3,67.4,29.99,NW,319,0.0,0.0,97,0.00,,SCT080,0.00,VWS V12.08,2013-04-02 08:40:00,
2013-04-02 04:45:00,68.3,67.4,30.00,NW,320,0.0,0.0,97,0.00,,SCT080,0.00,VWS V12.08,2013-04-02 08:45:00,
2013-04-02 04:50:00,68.3,67.4,30.00,NW,320,0.0,0.0,97,0.00,,SCT080,0.00,VWS V12.08,2013-04-02 08:50:00,
2013-04-02 04:55:00,68.1,67.2,30.00,NW,320,0.0,0.0,97,0.00,,SCT080,0.00,VWS V12.08,2013-04-02 08:55:00,
2013-04-02 05:00:00,68.0,67.1,30.00,NW,320,0.0,0.0,97,0.00,,SCT080,0.00,VWS V12.08,2013-04-02 09:00:00,
2013-04-02 05:05:00,68.0,67.1,30.00,NW,320,0.0,0.0,97,0.00,,SCT080,0.00,VWS V12.08,2013-04-02 09:05:00,
2013-04-02 05:10:00,67.8,66.9,30.00,NW,320,0.0,0.0,97,0.00,,SCT080,0.00,VWS V12.08,2013-04-02 09:10:00,
2013-04-02 05:15:00,67.8,66.9,30.00,NW,320,0.0,0.0,97,0.00,,SCT080,0.00,VWS V12.08,2013-04-02 09:15:00,
2013-04-02 05:20:00,67.9,67.0,30.00,NW,320,0.0,0.0,97,0.00,,SCT080,0.00,VWS V12.08,2013-04-02 09:20:00,
2013-04-02 05:25:00,67.8,66.9,30.00,NW,320,0.0,0.0,97,0.00,,SCT080,0.00,VWS V12.08,2013-04-02 09:25:00,
2013-04-02 05:30:00,67.7,66.8,30.00,NW,320,0.0,0.0,97,0.00,,SCT080,0.00,VWS V12.08,2013-04-02 09:30:00,
2013-04-02 05:35:00,67.7,66.8,30.01,NW,320,0.0,0.0,97,0.00,,SCT080,0.00,VWS V12.08,2013-04-02 09:35:00,
2013-04-02 05:40:00,67.6,66.7,30.01,NW,320,0.0,0.0,97,0.00,,SCT080,0.00,VWS V12.08,2013-04-02 09:40:00,
2013-04-02 05:45:00,67.6,66.7,30.01,NW,320,0.0,0.0,97,0.00,,SCT080,0.00,VWS V12.08,2013-04-02 09:45:00,
2013-04-02 05:50:00,67.4,66.5,30.01,NW,320,0.0,0.0,97,0.00,,SCT080,0.00,VWS V12.08,2013-04-02 09:50:00,
2013-04-02 05:55:00,67.1,66.2,30.01,NW,319,0.0,0.0,97,0.00,,SCT080,0.00,VWS V12.08,2013-04-02 09:55:00,
2013-04-02 06:00:00,67.1,66.2,30.01,NW,320,0.0,0.0,97,0.00,,SCT080,0.00,VWS V12.08,2013-04-02 10:00:00,
2013-04-02 06:05:00,67.2,66.3,30.01,NW,320,0.0,0.0,97,0.00,,SCT080,0.00,VWS V12.08,2013-04-02 10:05:00,
2013-04-02 06:10:00,67.1,66.2,30.01,NW,320,0.0,0.0,97,0.00,,SCT080,0.00,VWS V12.08,2013-04-02 10:10:00,
2013-04-02 06:15:00,67.0,66.1,30.01,NW,320,0.0,0.0,97,0.00,,SCT080,0.00,VWS V12.08,2013-04-02 10:15:00,
2013-04-02 06:20:00,67.0,66.1,30.02,NW,320,0.0,0.0,97,0.00,,SCT080,0.00,VWS V12.08,2013-04-02 10:20:00,
2013-04-02 06:25:00,67.0,66.1,30.02,NW,320,0.0,0.0,97,0.00,,SCT080,0.00,VWS V12.08,2013-04-02 10:25:00,
2013-04-02 06:30:00,66.9,66.0,30.02,NW,320,0.0,0.0,97,0.00,,SCT080,0.00,VWS V12.08,2013-04-02 10:30:00,
2013-04-02 06:35:00,67.0,66.1,30.02,NW,320,0.0,0.0,97,0.00,,SCT080,0.00,VWS V12.08,2013-04-02 10:35:00,
2013-04-02 06:40:00,67.0,66.1,30.02,NW,320,0.0,0.0,97,0.00,,SCT080,0.00,VWS V12.08,2013-04-02 10:40:00,
2013-04-02 06:45:00,67.0,66.1,30.02,NW,319,0.0,0.0,97,0.00,,SCT080,0.00,VWS V12.08,2013-04-02 10:45:00,
2013-04-02 06:50:00,67.0,66.1,30.02,NW,320,0.0,0.0,97,0.00,,SCT080,0.00,VWS V12.08,2013-04-02 10:50:00,
2013-04-02 07:00:00,67.0,66.1,30.03,NW,320,0.0,0.0,97,0.00,,SCT080,0.00,VWS V12.08,2013-04-02 11:00:00,
2013-04-02 07:05:00,67.0,66.1,30.03,NW,320,0.0,0.0,97,0.00,,SCT080,0.00,VWS V12.08,2013-04-02 11:05:00,
2013-04-02 07:10:00,67.1,66.2,30.03,NW,320,0.0,0.0,97,0.00,,SCT080,0.00,VWS V12.08,2013-04-02 11:10:00,
2013-04-02 07:25:00,66.7,65.8,30.04,NW,320,0.0,0.0,97,0.00,,SCT080,0.00,VWS V12.08,2013-04-02 11:25:00,
2013-04-02 07:30:00,66.6,65.7,30.05,NW,319,0.0,0.0,97,0.00,,SCT080,0.00,VWS V12.08,2013-04-02 11:30:00,
2013-04-02 07:35:00,66.6,65.7,30.05,NW,319,0.0,0.0,97,0.00,,SCT080,0.00,VWS V12.08,2013-04-02 11:35:00,
2013-04-02 07:40:00,66.5,65.9,30.05,NW,319,0.0,0.0,98,0.00,,SCT080,0.00,VWS V12.08,2013-04-02 11:40:00,
2013-04-02 07:45:00,66.5,65.9,30.05,NW,319,0.0,0.0,98,0.00,,SCT080,0.00,VWS V12.08,2013-04-02 11:45:00,
2013-04-02 07:50:00,66.6,66.0,30.05,NW,319,0.0,0.0,98,0.00,,SCT080,0.00,VWS V12.08,2013-04-02 11:50:00,
2013-04-02 07:55:00,66.6,66.0,30.05,NW,319,0.0,0.0,98,0.00,,SCT080,0.00,VWS V12.08,2013-04-02 11:55:00,
2013-04-02 08:00:00,66.7,66.1,30.06,NW,319,0.0,0.0,98,0.00,,SCT080,0.00,VWS V12.08,2013-04-02 12:00:00,
2013-04-02 08:05:00,66.8,65.9,30.06,NW,319,0.0,0.0,97,0.00,,SCT080,0.00,VWS V12.08,2013-04-02 12:05:00,
2013-04-02 08:10:00,66.7,66.1,30.06,NW,320,0.0,0.0,98,0.00,,SCT080,0.00,VWS V12.08,2013-04-02 12:10:00,
2013-04-02 08:15:00,66.7,65.8,30.06,NW,320,0.0,0.0,97,0.00,,SCT080,0.00,VWS V12.08,2013-04-02 12:15:00,
2013-04-02 08:20:00,66.7,66.1,30.06,NW,320,0.0,0.0,98,0.00,,SCT080,0.00,VWS V12.08,2013-04-02 12:20:00,
2013-04-02 08:25:00,66.6,66.0,30.07,NW,320,0.0,0.0,98,0.00,,SCT080,0.00,VWS V12.08,2013-04-02 12:25:00,
2013-04-02 08:30:00,66.8,66.2,30.07,NW,319,0.0,0.0,98,0.00,,SCT080,0.00,VWS V12.08,2013-04-02 12:30:00,
2013-04-02 08:35:00,66.6,66.0,30.07,NW,319,0.0,0.0,98,0.00,,SCT080,0.00,VWS V12.08,2013-04-02 12:35:00,
2013-04-02 08:40:00,66.6,66.0,30.07,NW,319,0.0,0.0,98,0.00,,SCT080,0.00,VWS V12.08,2013-04-02 12:40:00,
2013-04-02 08:45:00,66.8,66.2,30.07,NW,319,0.0,0.0,98,0.00,,SCT080,0.00,VWS V12.08,2013-04-02 12:45:00,
2013-04-02 08:50:00,67.0,66.4,30.07,NW,319,0.0,0.0,98,0.00,,SCT080,0.00,VWS V12.08,2013-04-02 12:50:00,
2013-04-02 08:55:00,67.2,66.6,30.07,NW,319,0.0,0.0,98,0.00,,SCT080,0.00,VWS V12.08,2013-04-02 12:55:00,
2013-04-02 09:00:00,67.1,66.5,30.07,NW,319,0.0,0.0,98,0.00,,SCT080,0.00,VWS V12.08,2013-04-02 13:00:00,
2013-04-02 09:10:00,67.1,66.5,30.07,NW,319,0.0,0.0,98,0.00,,SCT080,0.00,VWS V12.08,2013-04-02 13:10:00,
2013-04-02 09:15:00,67.7,67.1,30.07,NW,319,0.0,0.0,98,0.00,,SCT080,0.00,VWS V12.08,2013-04-02 13:15:00,
2013-04-02 09:20:00,67.9,67.3,30.07,NW,319,0.0,0.0,98,0.00,,SCT080,0.00,VWS V12.08,2013-04-02 13:20:00,
2013-04-02 09:25:00,68.3,67.7,30.08,NW,319,0.0,0.0,98,0.00,,SCT080,0.00,VWS V12.08,2013-04-02 13:25:00,
2013-04-02 09:30:00,68.6,68.0,30.08,NW,320,0.0,0.0,98,0.00,,SCT080,0.00,VWS V12.08,2013-04-02 13:30:00,
2013-04-02 09:35:00,68.9,68.0,30.08,NW,320,0.0,0.0,97,0.00,,SCT080,0.00,VWS V12.08,2013-04-02 13:35:00,
2013-04-02 09:40:00,69.2,68.3,30.08,NNE,14,0.0,5.0,97,0.00,,SCT080,0.00,VWS V12.08,2013-04-02 13:40:00,
2013-04-02 09:45:00,68.8,67.6,30.08,North,355,0.0,1.0,96,0.00,,SCT080,0.00,VWS V12.08,2013-04-02 13:45:00,
2013-04-02 09:50:00,69.2,68.0,30.08,NW,321,0.0,0.0,96,0.00,,SCT080,0.00,VWS V12.08,2013-04-02 13:50:00,
2013-04-02 09:55:00,70.1,68.6,30.08,NW,313,0.0,0.0,95,0.00,,SCT080,0.00,VWS V12.08,2013-04-02 13:55:00,
2013-04-02 10:05:00,70.5,68.1,30.08,WNW,302,0.0,5.0,92,0.00,,SCT080,0.00,VWS V12.08,2013-04-02 14:05:00,
2013-04-02 10:10:00,70.9,68.2,30.08,NNW,327,0.0,0.0,91,0.00,,SCT080,0.00,VWS V12.08,2013-04-02 14:10:00,
2013-04-02 10:15:00,72.7,69.9,30.08,North,360,0.0,0.0,91,0.00,,SCT080,0.00,VWS V12.08,2013-04-02 14:15:00,
2013-04-02 10:20:00,73.2,69.1,30.08,North,349,3.0,5.0,87,0.00,,SCT080,0.00,VWS V12.08,2013-04-02 14:20:00,
2013-04-02 10:25:00,73.7,68.6,30.08,North,355,0.0,6.0,84,0.00,,SCT080,0.00,VWS V12.08,2013-04-02 14:25:00,
2013-04-02 10:30:00,73.6,69.2,30.08,NNE,26,0.0,3.0,86,0.00,,SCT080,0.00,VWS V12.08,2013-04-02 14:30:00,
2013-04-02 10:35:00,74.7,69.2,30.08,NNE,26,0.0,1.0,83,0.00,,SCT080,0.00,VWS V12.08,2013-04-02 14:35:00,
2013-04-02 10:40:00,74.9,69.4,30.08,NNW,329,0.0,4.0,83,0.00,,SCT080,0.00,VWS V12.08,2013-04-02 14:40:00,
2013-04-02 10:45:00,75.0,68.4,30.08,NNW,327,0.0,6.0,80,0.00,,SCT080,0.00,VWS V12.08,2013-04-02 14:45:00,
2013-04-02 10:50:00,74.5,67.9,30.08,NW,314,0.0,8.0,80,0.00,,SCT080,0.00,VWS V12.08,2013-04-02 14:50:00,
2013-04-02 10:55:00,75.2,69.0,30.08,NNW,337,0.0,5.0,81,0.00,,SCT080,0.00,VWS V12.08,2013-04-02 14:55:00,
2013-04-02 11:00:00,76.3,68.9,30.08,North,355,0.0,8.0,78,0.00,,SCT080,0.00,VWS V12.08,2013-04-02 15:00:00,
2013-04-02 11:05:00,77.1,68.2,30.08,NNW,340,0.0,4.0,74,0.00,,SCT080,0.00,VWS V12.08,2013-04-02 15:05:00,
2013-04-02 11:10:00,76.7,68.2,30.08,NW,309,0.0,5.0,75,0.00,,SCT080,0.00,VWS V12.08,2013-04-02 15:10:00,
2013-04-02 11:15:00,77.1,69.0,30.08,NW,308,3.0,5.0,76,0.00,,SCT080,0.00,VWS V12.08,2013-04-02 15:15:00,
2013-04-02 11:20:00,76.0,67.5,30.08,WNW,300,0.0,5.0,75,0.00,,SCT080,0.00,VWS V12.08,2013-04-02 15:20:00,
2013-04-02 11:25:00,75.6,67.1,30.08,WNW,296,0.0,5.0,75,0.00,,SCT080,0.00,VWS V12.08,2013-04-02 15:25:00,
2013-04-02 11:30:00,76.1,66.8,30.08,NW,308,8.0,8.0,73,0.00,,SCT080,0.00,VWS V12.08,2013-04-02 15:30:00,
2013-04-02 11:35:00,76.5,66.0,30.08,NW,308,0.0,8.0,70,0.00,,SCT080,0.00,VWS V12.08,2013-04-02 15:35:00,
2013-04-02 11:40:00,76.8,66.3,30.08,WNW,291,5.0,8.0,70,0.00,,SCT080,0.00,VWS V12.08,2013-04-02 15:40:00,
2013-04-02 11:45:00,77.0,65.6,30.08,WNW,303,4.0,8.0,68,0.00,,SCT080,0.00,VWS V12.08,2013-04-02 15:45:00,
2013-04-02 11:50:00,76.7,65.3,30.08,WNW,302,0.0,8.0,68,0.00,,SCT080,0.00,VWS V12.08,2013-04-02 15:50:00,
2013-04-02 11:55:00,77.0,66.1,30.08,NW,306,2.0,5.0,69,0.00,,SCT080,0.00,VWS V12.08,2013-04-02 15:55:00,
2013-04-02 12:00:00,77.6,67.5,30.08,NW,319,0.0,6.0,71,0.00,,SCT080,0.00,VWS V12.08,2013-04-02 16:00:00,
2013-04-02 12:05:00,77.2,65.4,30.07,WNW,301,0.0,4.0,67,0.00,,SCT080,0.00,VWS V12.08,2013-04-02 16:05:00,
2013-04-02 12:10:00,77.8,66.0,30.07,SSW,202,0.0,1.0,67,0.00,,SCT080,0.00,VWS V12.08,2013-04-02 16:10:00,
2013-04-02 12:15:00,78.4,65.7,30.07,WNW,295,2.0,7.0,65,0.00,,SCT080,0.00,VWS V12.08,2013-04-02 16:15:00,
2013-04-02 12:20:00,77.6,64.9,30.07,NW,313,0.0,5.0,65,0.00,,SCT080,0.00,VWS V12.08,2013-04-02 16:20:00,
2013-04-02 12:25:00,78.8,65.6,30.07,NW,306,0.0,5.0,64,0.00,,SCT080,0.00,VWS V12.08,2013-04-02 16:25:00,
2013-04-02 12:30:00,78.4,65.2,30.06,NW,309,0.0,4.0,64,0.00,,SCT080,0.00,VWS V12.08,2013-04-02 16:30:00,
2013-04-02 12:35:00,78.9,67.4,30.07,North,355,1.0,5.0,68,0.00,,SCT080,0.00,VWS V12.08,2013-04-02 16:35:00,
2013-04-02 12:40:00,79.1,65.9,30.07,West,273,0.0,6.0,64,0.00,,SCT080,0.00,VWS V12.08,2013-04-02 16:40:00,
2013-04-02 12:45:00,78.8,66.5,30.07,West,267,0.0,0.0,66,0.00,,SCT080,0.00,VWS V12.08,2013-04-02 16:45:00,
2013-04-02 12:50:00,79.1,67.2,30.07,NW,308,0.0,0.0,67,0.00,,SCT080,0.00,VWS V12.08,2013-04-02 16:50:00,
2013-04-02 12:55:00,79.6,67.7,30.06,NW,325,3.0,7.0,67,0.00,,SCT080,0.00,VWS V12.08,2013-04-02 16:55:00,
2013-04-02 13:00:00,79.8,67.4,30.06,West,265,8.0,9.0,66,0.00,,SCT080,0.00,VWS V12.08,2013-04-02 17:00:00,
2013-04-02 13:05:00,78.8,66.9,30.06,WNW,285,0.0,7.0,67,0.00,,SCT080,0.00,VWS V12.08,2013-04-02 17:05:00,
2013-04-02 13:10:00,79.8,68.3,30.06,West,274,6.0,7.0,68,0.00,,SCT080,0.00,VWS V12.08,2013-04-02 17:10:00,
2013-04-02 13:15:00,80.9,68.9,30.06,NNW,348,3.0,7.0,67,0.00,,SCT080,0.00,VWS V12.08,2013-04-02 17:15:00,
2013-04-02 13:20:00,79.7,67.3,30.06,North,355,3.0,8.0,66,0.00,,SCT080,0.00,VWS V12.08,2013-04-02 17:20:00,
2013-04-02 13:25:00,79.8,67.4,30.06,NW,309,7.0,9.0,66,0.00,,SCT080,0.00,VWS V12.08,2013-04-02 17:25:00,
2013-04-02 13:30:00,80.8,69.3,30.05,WNW,290,5.0,8.0,68,0.00,,SCT080,0.00,VWS V12.08,2013-04-02 17:30:00,
2013-04-02 13:35:00,80.5,69.4,30.05,NW,325,0.0,8.0,69,0.00,,SCT080,0.00,VWS V12.08,2013-04-02 17:35:00,
2013-04-02 13:40:00,81.1,68.2,30.05,WNW,292,5.0,7.0,65,0.00,,SCT080,0.00,VWS V12.08,2013-04-02 17:40:00,
2013-04-02 13:45:00,79.7,66.9,30.05,WNW,291,7.0,9.0,65,0.00,,SCT080,0.00,VWS V12.08,2013-04-02 17:45:00,
2013-04-02 13:50:00,79.5,66.3,30.05,West,280,7.0,11.0,64,0.00,,SCT080,0.00,VWS V12.08,2013-04-02 17:50:00,
2013-04-02 13:55:00,79.9,66.2,30.05,WSW,244,7.0,10.0,63,0.00,,SCT080,0.00,VWS V12.08,2013-04-02 17:55:00,
2013-04-02 14:00:00,80.0,66.7,30.04,West,279,4.0,9.0,64,0.00,,SCT080,0.00,VWS V12.08,2013-04-02 18:00:00,
2013-04-02 14:05:00,80.5,67.2,30.04,WNW,286,6.0,10.0,64,0.00,,SCT080,0.00,VWS V12.08,2013-04-02 18:05:00,
2013-04-02 14:10:00,80.1,66.8,30.04,West,269,5.0,11.0,64,0.00,,SCT080,0.00,VWS V12.08,2013-04-02 18:10:00,
2013-04-02 14:15:00,79.9,67.1,30.04,West,265,6.0,11.0,65,0.00,,SCT080,0.00,VWS V12.08,2013-04-02 18:15:00,
2013-04-02 14:20:00,79.9,67.5,30.04,West,277,5.0,11.0,66,0.00,,SCT080,0.00,VWS V12.08,2013-04-02 18:20:00,
2013-04-02 14:25:00,80.1,66.8,30.04,West,275,12.0,12.0,64,0.00,,SCT080,0.00,VWS V12.08,2013-04-02 18:25:00,
2013-04-02 14:30:00,79.7,66.5,30.04,West,269,9.0,12.0,64,0.00,,SCT080,0.00,VWS V12.08,2013-04-02 18:30:00,
2013-04-02 14:35:00,79.6,66.4,30.03,West,271,1.0,12.0,64,0.00,,SCT080,0.00,VWS V12.08,2013-04-02 18:35:00,
2013-04-02 14:40:00,80.4,67.6,30.03,West,266,5.0,9.0,65,0.00,,SCT080,0.00,VWS V12.08,2013-04-02 18:40:00,
2013-04-02 14:45:00,80.0,67.2,30.03,WNW,288,9.0,10.0,65,0.00,,SCT080,0.00,VWS V12.08,2013-04-02 18:45:00,
2013-04-02 14:50:00,80.0,67.2,30.03,WSW,254,5.0,11.0,65,0.00,,SCT080,0.00,VWS V12.08,2013-04-02 18:50:00,
2013-04-02 14:55:00,80.0,66.3,30.03,WSW,244,8.0,11.0,63,0.00,,SCT080,0.00,VWS V12.08,2013-04-02 18:55:00,
2013-04-02 15:00:00,79.9,66.6,30.03,West,275,7.0,12.0,64,0.00,,SCT080,0.00,VWS V12.08,2013-04-02 19:00:00,
2013-04-02 15:05:00,80.3,67.0,30.02,WNW,299,6.0,12.0,64,0.00,,SCT080,0.00,VWS V12.08,2013-04-02 19:05:00,
2013-04-02 15:10:00,79.8,66.6,30.02,WNW,302,7.0,10.0,64,0.00,,SCT080,0.00,VWS V12.08,2013-04-02 19:10:00,
2013-04-02 15:15:00,80.3,67.0,30.02,NW,316,8.0,10.0,64,0.00,,SCT080,0.00,VWS V12.08,2013-04-02 19:15:00,
2013-04-02 15:20:00,79.7,66.0,30.02,West,271,9.0,13.0,63,0.00,,SCT080,0.00,VWS V12.08,2013-04-02 19:20:00,
2013-04-02 15:25:00,79.7,66.9,30.02,West,260,8.0,12.0,65,0.00,,SCT080,0.00,VWS V12.08,2013-04-02 19:25:00,
2013-04-02 15:30:00,80.4,67.1,30.02,West,277,5.0,9.0,64,0.00,,SCT080,0.00,VWS V12.08,2013-04-02 19:30:00,
2013-04-02 15:35:00,80.0,66.3,30.02,West,281,7.0,11.0,63,0.00,,SCT080,0.00,VWS V12.08,2013-04-02 19:35:00,
2013-04-02 15:40:00,80.0,65.8,30.02,West,269,6.0,11.0,62,0.00,,SCT080,0.00,VWS V12.08,2013-04-02 19:40:00,
2013-04-02 15:45:00,80.0,65.8,30.01,West,269,9.0,13.0,62,0.00,,SCT080,0.00,VWS V12.08,2013-04-02 19:45:00,
2013-04-02 15:50:00,79.5,64.9,30.01,West,273,9.0,11.0,61,0.00,,SCT080,0.00,VWS V12.08,2013-04-02 19:50:00,
2013-04-02 16:00:00,79.9,64.8,30.01,WNW,298,3.0,11.0,60,0.00,,SCT080,0.00,VWS V12.08,2013-04-02 20:00:00,
2013-04-02 16:05:00,80.0,65.4,30.01,WNW,288,6.0,9.0,61,0.00,,SCT080,0.00,VWS V12.08,2013-04-02 20:05:00,
2013-04-02 16:10:00,79.7,65.5,30.01,WNW,289,2.0,10.0,62,0.00,,SCT080,0.00,VWS V12.08,2013-04-02 20:10:00,
2013-04-02 16:15:00,79.9,65.7,30.01,WNW,290,9.0,10.0,62,0.00,,SCT080,0.00,VWS V12.08,2013-04-02 20:15:00,
2013-04-02 16:20:00,79.4,64.8,30.01,West,275,8.0,11.0,61,0.00,,SCT080,0.00,VWS V12.08,2013-04-02 20:20:00,
2013-04-02 16:25:00,79.8,66.1,30.01,WNW,302,6.0,9.0,63,0.00,,SCT080,0.00,VWS V12.08,2013-04-02 20:25:00,
2013-04-02 16:30:00,79.7,64.6,30.01,West,281,5.0,9.0,60,0.00,,SCT080,0.00,VWS V12.08,2013-04-02 20:30:00,
2013-04-02 16:35:00,79.8,64.2,30.01,West,279,1.0,11.0,59,0.00,,SCT080,0.00,VWS V12.08,2013-04-02 20:35:00,
2013-04-02 16:40:00,79.4,63.8,30.01,WNW,287,10.0,10.0,59,0.00,,SCT080,0.00,VWS V12.08,2013-04-02 20:40:00,
2013-04-02 16:45:00,79.2,64.6,30.01,WNW,285,8.0,10.0,61,0.00,,SCT080,0.00,VWS V12.08,2013-04-02 20:45:00,
2013-04-02 16:50:00,79.2,64.1,30.01,NW,311,5.0,9.0,60,0.00,,SCT080,0.00,VWS V12.08,2013-04-02 20:50:00,
2013-04-02 16:55:00,79.4,65.3,30.01,WNW,298,0.0,9.0,62,0.00,,SCT080,0.00,VWS V12.08,2013-04-02 20:55:00,
2013-04-02 17:00:00,79.8,65.6,30.01,West,271,2.0,9.0,62,0.00,,SCT080,0.00,VWS V12.08,2013-04-02 21:00:00,
2013-04-02 17:05:00,79.5,64.9,30.01,West,277,6.0,9.0,61,0.00,,SCT080,0.00,VWS V12.08,2013-04-02 21:05:00,
2013-04-02 17:10:00,79.2,64.1,30.01,WNW,292,7.0,10.0,60,0.00,,SCT080,0.00,VWS V12.08,2013-04-02 21:10:00,
2013-04-02 17:15:00,79.2,64.6,30.01,West,279,4.0,9.0,61,0.00,,SCT080,0.00,VWS V12.08,2013-04-02 21:15:00,
2013-04-02 17:20:00,79.3,64.7,30.01,WNW,296,7.0,10.0,61,0.00,,SCT080,0.00,VWS V12.08,2013-04-02 21:20:00,
2013-04-02 17:30:00,78.6,65.0,30.00,WNW,284,5.0,9.0,63,0.00,,SCT080,0.00,VWS V12.08,2013-04-02 21:30:00,
2013-04-02 17:35:00,78.8,65.2,30.00,WNW,300,6.0,9.0,63,0.00,,SCT080,0.00,VWS V12.08,2013-04-02 21:35:00,
2013-04-02 17:40:00,78.4,65.2,30.00,WNW,292,3.0,11.0,64,0.00,,SCT080,0.00,VWS V12.08,2013-04-02 21:40:00,
2013-04-02 17:45:00,78.6,65.0,30.00,West,279,6.0,8.0,63,0.00,,SCT080,0.00,VWS V12.08,2013-04-02 21:45:00,
2013-04-02 17:50:00,78.2,65.0,30.00,West,268,5.0,9.0,64,0.00,,SCT080,0.00,VWS V12.08,2013-04-02 21:50:00,
2013-04-02 17:55:00,78.0,65.7,30.00,West,273,5.0,10.0,66,0.00,,SCT080,0.00,VWS V12.08,2013-04-02 21:55:00,
2013-04-02 18:00:00,77.9,65.2,30.00,WNW,284,4.0,8.0,65,0.00,,SCT080,0.00,VWS V12.08,2013-04-02 22:00:00,
2013-04-02 18:05:00,78.0,65.3,29.99,WNW,302,3.0,8.0,65,0.00,,SCT080,0.00,VWS V12.08,2013-04-02 22:05:00,
2013-04-02 18:10:00,77.7,65.0,30.00,WNW,290,5.0,10.0,65,0.00,,SCT080,0.00,VWS V12.08,2013-04-02 22:10:00,
2013-04-02 18:15:00,77.5,65.3,30.00,WNW,291,5.0,8.0,66,0.00,,SCT080,0.00,VWS V12.08,2013-04-02 22:15:00,
2013-04-02 18:25:00,77.0,65.2,30.00,NW,306,5.0,10.0,67,0.00,,SCT080,0.00,VWS V12.08,2013-04-02 22:25:00,
2013-04-02 18:30:00,76.9,65.5,30.00,WNW,302,0.0,9.0,68,0.00,,SCT080,0.00,VWS V12.08,2013-04-02 22:30:00,
2013-04-02 18:35:00,76.7,65.3,30.00,WNW,298,3.0,10.0,68,0.00,,SCT080,0.00,VWS V12.08,2013-04-02 22:35:00,
2013-04-02 18:40:00,76.3,65.8,30.00,WNW,283,7.0,11.0,70,0.00,,SCT080,0.00,VWS V12.08,2013-04-02 22:40:00,
2013-04-02 18:45:00,76.0,65.9,30.00,NW,304,6.0,9.0,71,0.00,,SCT080,0.00,VWS V12.08,2013-04-02 22:45:00,
2013-04-02 18:50:00,75.9,65.8,30.00,WNW,285,6.0,8.0,71,0.00,,SCT080,0.00,VWS V12.08,2013-04-02 22:50:00,
2013-04-02 18:55:00,75.5,65.8,30.00,WNW,297,2.0,9.0,72,0.00,,SCT080,0.00,VWS V12.08,2013-04-02 22:55:00,
2013-04-02 19:00:00,75.3,66.1,30.00,WNW,297,0.0,7.0,73,0.00,,SCT080,0.00,VWS V12.08,2013-04-02 23:00:00,
2013-04-02 19:05:00,75.0,66.2,30.01,NW,311,4.0,9.0,74,0.00,,SCT080,0.00,VWS V12.08,2013-04-02 23:05:00,
2013-04-02 19:10:00,74.7,65.9,30.00,NW,307,8.0,8.0,74,0.00,,SCT080,0.00,VWS V12.08,2013-04-02 23:10:00,
2013-04-02 19:15:00,74.2,65.8,30.00,NW,320,5.0,8.0,75,0.00,,SCT080,0.00,VWS V12.08,2013-04-02 23:15:00,
2013-04-02 19:20:00,73.8,65.8,30.01,WNW,298,9.0,9.0,76,0.00,,SCT080,0.00,VWS V12.08,2013-04-02 23:20:00,
2013-04-02 19:25:00,73.4,65.4,30.01,NNW,330,4.0,9.0,76,0.00,,SCT080,0.00,VWS V12.08,2013-04-02 23:25:00,
2013-04-02 19:30:00,73.1,65.1,30.01,WNW,283,7.0,9.0,76,0.00,,SCT080,0.00,VWS V12.08,2013-04-02 23:30:00,
2013-04-02 19:35:00,72.6,65.0,30.01,WNW,302,0.0,8.0,77,0.00,,SCT080,0.00,VWS V12.08,2013-04-02 23:35:00,
2013-04-02 19:40:00,72.4,65.5,30.01,WNW,288,7.0,7.0,79,0.00,,SCT080,0.00,VWS V12.08,2013-04-02 23:40:00,
2013-04-02 19:45:00,72.2,65.3,30.01,NW,313,4.0,7.0,79,0.00,,SCT080,0.00,VWS V12.08,2013-04-02 23:45:00,
2013-04-02 19:50:00,72.1,65.6,30.01,WNW,302,3.0,8.0,80,0.00,,SCT080,0.00,VWS V12.08,2013-04-02 23:50:00,
2013-04-02 19:55:00,71.9,65.8,30.01,WNW,286,0.0,8.0,81,0.00,,SCT080,0.00,VWS V12.08,2013-04-02 23:55:00,
2013-04-02 20:00:00,71.8,65.7,30.01,NW,306,0.0,6.0,81,0.00,,SCT080,0.00,VWS V12.08,2013-04-03 00:00:00,
2013-04-02 20:05:00,71.5,65.7,30.02,WNW,290,0.0,5.0,82,0.00,,SCT080,0.00,VWS V12.08,2013-04-03 00:05:00,
2013-04-02 20:10:00,71.3,65.5,30.02,WNW,298,0.0,0.0,82,0.00,,SCT080,0.00,VWS V12.08,2013-04-03 00:10:00,
2013-04-02 20:15:00,71.3,65.5,30.02,WNW,295,0.0,6.0,82,0.00,,SCT080,0.00,VWS V12.08,2013-04-03 00:15:00,
2013-04-02 20:20:00,71.3,65.5,30.02,NW,306,0.0,0.0,82,0.00,,SCT080,0.00,VWS V12.08,2013-04-03 00:20:00,
2013-04-02 20:25:00,71.1,65.3,30.02,WNW,298,0.0,0.0,82,0.00,,SCT080,0.00,VWS V12.08,2013-04-03 00:25:00,
2013-04-02 20:30:00,71.1,65.3,30.02,WNW,298,0.0,0.0,82,0.00,,SCT080,0.00,VWS V12.08,2013-04-03 00:30:00,
2013-04-02 20:35:00,71.0,65.6,30.02,NW,315,0.0,4.0,83,0.00,,SCT080,0.00,VWS V12.08,2013-04-03 00:35:00,
2013-04-02 20:40:00,70.9,65.5,30.02,NNW,329,0.0,0.0,83,0.00,,SCT080,0.00,VWS V12.08,2013-04-03 00:40:00,
2013-04-02 20:50:00,70.6,65.2,30.02,NW,308,0.0,6.0,83,0.00,,SCT080,0.00,VWS V12.08,2013-04-03 00:50:00,
2013-04-02 20:55:00,70.6,65.2,30.02,NW,310,0.0,4.0,83,0.00,,SCT080,0.00,VWS V12.08,2013-04-03 00:55:00,
2013-04-02 21:05:00,70.5,65.1,30.02,NW,317,0.0,4.0,83,0.00,,SCT080,0.00,VWS V12.08,2013-04-03 01:05:00,
2013-04-02 21:10:00,70.4,65.3,30.03,NW,312,0.0,0.0,84,0.00,,SCT080,0.00,VWS V12.08,2013-04-03 01:10:00,
2013-04-02 21:15:00,70.3,65.2,30.02,NW,312,0.0,0.0,84,0.00,,SCT080,0.00,VWS V12.08,2013-04-03 01:15:00,
2013-04-02 21:20:00,70.2,65.1,30.03,NW,324,0.0,0.0,84,0.00,,SCT080,0.00,VWS V12.08,2013-04-03 01:20:00,
2013-04-02 21:25:00,70.2,65.5,30.03,NNW,338,0.0,0.0,85,0.00,,SCT080,0.00,VWS V12.08,2013-04-03 01:25:00,
2013-04-02 21:30:00,70.0,65.6,30.03,NNW,338,0.0,0.0,86,0.00,,SCT080,0.00,VWS V12.08,2013-04-03 01:30:00,
2013-04-02 21:35:00,69.9,65.5,30.04,NNW,338,0.0,0.0,86,0.00,,SCT080,0.00,VWS V12.08,2013-04-03 01:35:00,
2013-04-02 21:40:00,69.8,65.4,30.04,NNW,338,0.0,0.0,86,0.00,,SCT080,0.00,VWS V12.08,2013-04-03 01:40:00,
2013-04-02 21:45:00,69.6,65.6,30.05,NNW,338,0.0,0.0,87,0.00,,SCT080,0.00,VWS V12.08,2013-04-03 01:45:00,
2013-04-02 21:50:00,69.5,65.5,30.05,NW,325,0.0,0.0,87,0.00,,SCT080,0.00,VWS V12.08,2013-04-03 01:50:00,
2013-04-02 21:55:00,69.4,65.4,30.05,NNW,335,0.0,0.0,87,0.00,,SCT080,0.00,VWS V12.08,2013-04-03 01:55:00,
2013-04-02 22:00:00,69.4,65.4,30.05,NNW,335,0.0,0.0,87,0.00,,SCT080,0.00,VWS V12.08,2013-04-03 02:00:00,
2013-04-02 22:05:00,69.3,65.3,30.05,NNW,335,0.0,0.0,87,0.00,,SCT080,0.00,VWS V12.08,2013-04-03 02:05:00,
2013-04-02 22:10:00,69.0,65.3,30.05,NNW,335,0.0,0.0,88,0.00,,SCT080,0.00,VWS V12.08,2013-04-03 02:10:00,
2013-04-02 22:15:00,68.7,65.0,30.06,NNW,335,0.0,0.0,88,0.00,,SCT080,0.00,VWS V12.08,2013-04-03 02:15:00,
2013-04-02 22:20:00,68.6,64.9,30.06,NNW,335,0.0,0.0,88,0.00,,SCT080,0.00,VWS V12.08,2013-04-03 02:20:00,
2013-04-02 22:25:00,68.5,64.8,30.06,NNW,335,0.0,0.0,88,0.00,,SCT080,0.00,VWS V12.08,2013-04-03 02:25:00,
2013-04-02 22:30:00,68.3,64.9,30.06,NNW,337,0.0,0.0,89,0.00,,SCT080,0.00,VWS V12.08,2013-04-03 02:30:00,
2013-04-02 22:35:00,68.4,65.0,30.06,NE,51,0.0,0.0,89,0.00,,SCT080,0.00,VWS V12.08,2013-04-03 02:35:00,
2013-04-02 22:40:00,68.7,65.3,30.06,NE,53,0.0,1.0,89,0.00,,SCT080,0.00,VWS V12.08,2013-04-03 02:40:00,
2013-04-02 22:45:00,69.0,65.6,30.06,ENE,57,0.0,0.0,89,0.00,,SCT080,0.00,VWS V12.08,2013-04-03 02:45:00,
2013-04-02 22:50:00,69.1,65.4,30.06,NE,49,0.0,0.0,88,0.00,,SCT080,0.00,VWS V12.08,2013-04-03 02:50:00,
2013-04-02 22:55:00,69.1,65.4,30.06,NE,50,0.0,0.0,88,0.00,,SCT080,0.00,VWS V12.08,2013-04-03 02:55:00,
2013-04-02 23:00:00,69.0,65.3,30.06,NE,46,0.0,0.0,88,0.00,,SCT080,0.00,VWS V12.08,2013-04-03 03:00:00,
2013-04-02 23:05:00,68.9,65.2,30.06,NE,51,0.0,0.0,88,0.00,,SCT080,0.00,VWS V12.08,2013-04-03 03:05:00,
2013-04-02 23:10:00,68.6,64.6,30.06,NE,45,0.0,7.0,87,0.00,,SCT080,0.00,VWS V12.08,2013-04-03 03:10:00,
2013-04-02 23:15:00,68.6,64.6,30.06,NE,44,0.0,0.0,87,0.00,,SCT080,0.00,VWS V12.08,2013-04-03 03:15:00,
2013-04-02 23:20:00,68.5,64.5,30.06,NE,44,0.0,0.0,87,0.00,,SCT080,0.00,VWS V12.08,2013-04-03 03:20:00,
2013-04-02 23:25:00,68.3,64.3,30.06,NE,44,0.0,0.0,87,0.00,,SCT080,0.00,VWS V12.08,2013-04-03 03:25:00,
2013-04-02 23:30:00,68.1,64.4,30.06,NE,44,0.0,0.0,88,0.00,,SCT080,0.00,VWS V12.08,2013-04-03 03:30:00,
2013-04-02 23:35:00,67.9,63.9,30.06,NE,44,0.0,0.0,87,0.00,,SCT080,0.00,VWS V12.08,2013-04-03 03:35:00,
2013-04-02 23:40:00,67.7,64.0,30.05,NE,44,0.0,0.0,88,0.00,,SCT080,0.00,VWS V12.08,2013-04-03 03:40:00,
2013-04-02 23:45:00,67.5,63.8,30.05,NE,44,0.0,0.0,88,0.00,,SCT080,0.00,VWS V12.08,2013-04-03 03:45:00,
2013-04-02 23:50:00,67.2,63.5,30.05,NE,44,0.0,0.0,88,0.00,,SCT080,0.00,VWS V12.08,2013-04-03 03:50:00,
2013-04-02 23:55:00,67.1,63.8,30.05,NE,44,0.0,0.0,89,0.00,,SCT080,0.00,VWS V12.08,2013-04-03 03:55:00,